Location: Huntsville
(41.2590°N, 111.7678°W)
Time: 23:10:32
(UTC+00:00)

SR - Pass Details

Date: 23 June 2021
Orbit: 577 x 878 km, 66.7° (Epoch: 29 July)

Event Time Altitude Azimuth Distance (km) Brightness Sun altitude
Rises 09:30:56 0° 311° (NW) 3,195 ? -19.4°
Reaches altitude 10° 09:34:34 10° 286° (WNW) 2,192 ? -19.1°
Enters shadow 09:35:40 12° 274° (W) 2,007 ? -19.0°
